Year,Month,Day,Hour,Minute,Value (Times are PST for temperature in C)
2010,07,23,00,00,12.20
2010,07,23,00,01,12.10
2010,07,23,00,02,12.10
2010,07,23,00,03,12.10
2010,07,23,00,04,12.10
2010,07,23,00,05,12.10
2010,07,23,00,06,12.10
2010,07,23,00,07,12.10
2010,07,23,00,08,12.10
2010,07,23,00,09,12.10
2010,07,23,00,10,12.10
2010,07,23,00,11,12.10
2010,07,23,00,12,12.10
2010,07,23,00,13,12.10
2010,07,23,00,14,12.10
2010,07,23,00,15,12.10
2010,07,23,00,16,12.10
2010,07,23,00,17,12.10
2010,07,23,00,18,12.10
2010,07,23,00,19,12.00
2010,07,23,00,20,12.00
2010,07,23,00,21,12.00
2010,07,23,00,22,12.00
2010,07,23,00,23,11.90
2010,07,23,00,24,11.90
2010,07,23,00,25,11.90
2010,07,23,00,26,11.90
2010,07,23,00,27,11.90
2010,07,23,00,28,11.80
2010,07,23,00,29,11.80
2010,07,23,00,30,11.80
2010,07,23,00,31,11.80
2010,07,23,00,32,11.80
2010,07,23,00,33,11.80
2010,07,23,00,34,11.80
2010,07,23,00,35,11.70
2010,07,23,00,36,11.70
2010,07,23,00,37,11.70
2010,07,23,00,38,11.70
2010,07,23,00,39,11.70
2010,07,23,00,40,11.70
2010,07,23,00,41,11.70
2010,07,23,00,42,11.60
2010,07,23,00,43,11.60
2010,07,23,00,44,11.60
2010,07,23,00,45,11.60
2010,07,23,00,46,11.60
2010,07,23,00,47,11.60
2010,07,23,00,48,11.60
2010,07,23,00,49,11.60
2010,07,23,00,50,11.60
2010,07,23,00,51,11.60
2010,07,23,00,52,11.60
2010,07,23,00,53,11.60
2010,07,23,00,54,11.50
2010,07,23,00,55,11.50
2010,07,23,00,56,11.50
2010,07,23,00,57,11.50
2010,07,23,00,58,11.50
2010,07,23,00,59,11.50
2010,07,23,01,00,11.40
2010,07,23,01,01,11.40
2010,07,23,01,02,11.40
2010,07,23,01,03,11.40
2010,07,23,01,04,11.40
2010,07,23,01,05,11.40
2010,07,23,01,06,11.40
2010,07,23,01,07,11.30
2010,07,23,01,08,11.30
2010,07,23,01,09,11.30
2010,07,23,01,10,11.30
2010,07,23,01,11,11.30
2010,07,23,01,12,11.30
2010,07,23,01,13,11.30
2010,07,23,01,14,11.20
2010,07,23,01,15,11.20
2010,07,23,01,16,11.20
2010,07,23,01,17,11.20
2010,07,23,01,18,11.20
2010,07,23,01,19,11.20
2010,07,23,01,20,11.20
2010,07,23,01,21,11.20
2010,07,23,01,22,11.20
2010,07,23,01,23,11.20
2010,07,23,01,24,11.20
2010,07,23,01,25,11.20
2010,07,23,01,26,11.20
2010,07,23,01,27,11.20
2010,07,23,01,28,11.20
2010,07,23,01,29,11.20
2010,07,23,01,30,11.20
2010,07,23,01,31,11.20
2010,07,23,01,32,11.20
2010,07,23,01,33,11.20
2010,07,23,01,34,11.20
2010,07,23,01,35,11.20
2010,07,23,01,36,11.20
2010,07,23,01,37,11.10
2010,07,23,01,38,11.10
2010,07,23,01,39,11.10
2010,07,23,01,40,11.10
2010,07,23,01,41,11.10
2010,07,23,01,42,11.10
2010,07,23,01,43,11.10
2010,07,23,01,44,11.10
2010,07,23,01,45,11.10
2010,07,23,01,46,11.10
2010,07,23,01,47,11.10
2010,07,23,01,48,11.10
2010,07,23,01,49,11.10
2010,07,23,01,50,11.10
2010,07,23,01,51,11.10
2010,07,23,01,52,11.10
2010,07,23,01,53,11.10
2010,07,23,01,54,11.10
2010,07,23,01,55,11.10
2010,07,23,01,56,11.10
2010,07,23,01,57,11.10
2010,07,23,01,58,11.10
2010,07,23,01,59,11.10
2010,07,23,02,00,11.10
2010,07,23,02,01,11.10
2010,07,23,02,02,11.10
2010,07,23,02,03,11.10
2010,07,23,02,04,11.10
2010,07,23,02,05,11.10
2010,07,23,02,06,11.10
2010,07,23,02,07,11.10
2010,07,23,02,08,11.10
2010,07,23,02,09,11.10
2010,07,23,02,10,11.10
2010,07,23,02,11,11.10
2010,07,23,02,12,11.10
2010,07,23,02,13,11.10
2010,07,23,02,14,11.10
2010,07,23,02,15,11.10
2010,07,23,02,16,11.10
2010,07,23,02,17,11.10
2010,07,23,02,18,11.10
2010,07,23,02,19,11.10
2010,07,23,02,20,11.00
2010,07,23,02,21,11.00
2010,07,23,02,22,11.00
2010,07,23,02,23,10.90
2010,07,23,02,24,10.90
2010,07,23,02,25,10.90
2010,07,23,02,26,10.90
2010,07,23,02,27,10.90
2010,07,23,02,28,10.90
2010,07,23,02,29,10.90
2010,07,23,02,30,10.90
2010,07,23,02,31,10.90
2010,07,23,02,32,10.90
2010,07,23,02,33,10.90
2010,07,23,02,34,10.80
2010,07,23,02,35,10.80
2010,07,23,02,36,10.80
2010,07,23,02,37,10.80
2010,07,23,02,38,10.70
2010,07,23,02,39,10.70
2010,07,23,02,40,10.70
2010,07,23,02,41,10.70
2010,07,23,02,42,10.70
2010,07,23,02,43,10.60
2010,07,23,02,44,10.60
2010,07,23,02,45,10.60
2010,07,23,02,46,10.60
2010,07,23,02,47,10.60
2010,07,23,02,48,10.60
2010,07,23,02,49,10.60
2010,07,23,02,50,10.60
2010,07,23,02,51,10.60
2010,07,23,02,52,10.50
2010,07,23,02,53,10.50
2010,07,23,02,54,10.50
2010,07,23,02,55,10.40
2010,07,23,02,56,10.40
2010,07,23,02,57,10.40
2010,07,23,02,58,10.40
2010,07,23,02,59,10.40
2010,07,23,03,00,10.30
2010,07,23,03,01,10.30
2010,07,23,03,02,10.30
2010,07,23,03,03,10.30
2010,07,23,03,04,10.30
2010,07,23,03,05,10.30
2010,07,23,03,06,10.30
2010,07,23,03,07,10.30
2010,07,23,03,08,10.30
2010,07,23,03,09,10.30
2010,07,23,03,10,10.30
2010,07,23,03,11,10.30
2010,07,23,03,12,10.30
2010,07,23,03,13,10.30
2010,07,23,03,14,10.30
2010,07,23,03,15,10.30
2010,07,23,03,16,10.30
2010,07,23,03,17,10.30
2010,07,23,03,18,10.30
2010,07,23,03,19,10.30
2010,07,23,03,20,10.30
2010,07,23,03,21,10.30
2010,07,23,03,22,10.30
2010,07,23,03,23,10.30
2010,07,23,03,24,10.30
2010,07,23,03,25,10.30
2010,07,23,03,26,10.30
2010,07,23,03,27,10.20
2010,07,23,03,28,10.20
2010,07,23,03,29,10.20
2010,07,23,03,30,10.20
2010,07,23,03,31,10.20
2010,07,23,03,32,10.20
2010,07,23,03,33,10.20
2010,07,23,03,34,10.20
2010,07,23,03,35,10.20
2010,07,23,03,36,10.20
2010,07,23,03,37,10.20
2010,07,23,03,38,10.20
2010,07,23,03,39,10.20
2010,07,23,03,40,10.10
2010,07,23,03,41,10.20
2010,07,23,03,42,10.10
2010,07,23,03,43,10.10
2010,07,23,03,44,10.10
2010,07,23,03,45,10.10
2010,07,23,03,46,10.10
2010,07,23,03,47,10.10
2010,07,23,03,48,10.10
2010,07,23,03,49,10.10
2010,07,23,03,50,10.10
2010,07,23,03,51,10.10
2010,07,23,03,52,10.10
2010,07,23,03,53,10.10
2010,07,23,03,54,10.10
2010,07,23,03,55,10.10
2010,07,23,03,56,10.10
2010,07,23,03,57,10.10
2010,07,23,03,58,10.10
2010,07,23,03,59,10.10
2010,07,23,04,00,10.10
2010,07,23,04,01,10.10
2010,07,23,04,02,10.10
2010,07,23,04,03,10.10
2010,07,23,04,04,10.00
2010,07,23,04,05,10.00
2010,07,23,04,06,10.00
2010,07,23,04,07,10.00
2010,07,23,04,08,10.00
2010,07,23,04,09,10.00
2010,07,23,04,10,10.00
2010,07,23,04,11,10.00
2010,07,23,04,12,10.00
2010,07,23,04,13,10.00
2010,07,23,04,14,10.00
2010,07,23,04,15,10.00
2010,07,23,04,16,10.00
2010,07,23,04,17,10.00
2010,07,23,04,18,10.00
2010,07,23,04,19,9.90
2010,07,23,04,20,10.00
2010,07,23,04,21,9.90
2010,07,23,04,22,10.00
2010,07,23,04,23,10.00
2010,07,23,04,24,10.00
2010,07,23,04,25,10.00
2010,07,23,04,26,10.00
2010,07,23,04,27,10.00
2010,07,23,04,28,10.00
2010,07,23,04,29,10.00
2010,07,23,04,30,9.90
2010,07,23,04,31,9.90
2010,07,23,04,32,9.90
2010,07,23,04,33,9.90
2010,07,23,04,34,9.90
2010,07,23,04,35,9.90
2010,07,23,04,36,9.90
2010,07,23,04,37,9.90
2010,07,23,04,38,9.90
2010,07,23,04,39,9.90
2010,07,23,04,40,9.90
2010,07,23,04,41,9.90
2010,07,23,04,42,9.90
2010,07,23,04,43,9.90
2010,07,23,04,44,9.80
2010,07,23,04,45,9.80
2010,07,23,04,46,9.80
2010,07,23,04,47,9.80
2010,07,23,04,48,9.70
2010,07,23,04,49,9.70
2010,07,23,04,50,9.70
2010,07,23,04,51,9.70
2010,07,23,04,52,9.70
2010,07,23,04,53,9.80
2010,07,23,04,54,9.80
2010,07,23,04,55,9.80
2010,07,23,04,56,9.80
2010,07,23,04,57,9.90
2010,07,23,04,58,9.90
2010,07,23,04,59,9.90
2010,07,23,05,00,9.90
2010,07,23,05,01,9.90
2010,07,23,05,02,9.90
2010,07,23,05,03,9.90
2010,07,23,05,04,9.90
2010,07,23,05,05,9.90
2010,07,23,05,06,9.90
2010,07,23,05,07,9.90
2010,07,23,05,08,9.90
2010,07,23,05,09,9.90
2010,07,23,05,10,9.90
2010,07,23,05,11,9.90
2010,07,23,05,12,9.90
2010,07,23,05,13,9.90
2010,07,23,05,14,9.90
2010,07,23,05,15,9.90
2010,07,23,05,16,9.90
2010,07,23,05,17,9.90
2010,07,23,05,18,9.90
2010,07,23,05,19,9.90
2010,07,23,05,20,9.80
2010,07,23,05,21,9.80
2010,07,23,05,22,9.80
2010,07,23,05,23,9.80
2010,07,23,05,24,9.80
2010,07,23,05,25,9.80
2010,07,23,05,26,9.80
2010,07,23,05,27,9.80
2010,07,23,05,28,9.80
2010,07,23,05,29,9.80
2010,07,23,05,30,9.80
2010,07,23,05,31,9.80
2010,07,23,05,32,9.90
2010,07,23,05,33,9.90
2010,07,23,05,34,10.00
2010,07,23,05,35,10.00
2010,07,23,05,36,10.10
2010,07,23,05,37,10.10
2010,07,23,05,38,10.10
2010,07,23,05,39,10.10
2010,07,23,05,40,10.20
2010,07,23,05,41,10.20
2010,07,23,05,42,10.20
2010,07,23,05,43,10.20
2010,07,23,05,44,10.10
2010,07,23,05,45,10.10
2010,07,23,05,46,10.10
2010,07,23,05,47,10.10
2010,07,23,05,48,10.10
2010,07,23,05,49,10.10
2010,07,23,05,50,10.00
2010,07,23,05,51,10.00
2010,07,23,05,52,10.00
2010,07,23,05,53,10.00
2010,07,23,05,54,10.00
2010,07,23,05,55,9.90
2010,07,23,05,56,9.90
2010,07,23,05,57,9.90
2010,07,23,05,58,9.90
2010,07,23,05,59,9.90
2010,07,23,06,00,9.90
2010,07,23,06,01,9.90
2010,07,23,06,02,9.90
2010,07,23,06,03,9.90
2010,07,23,06,04,9.80
2010,07,23,06,05,9.80
2010,07,23,06,06,9.80
2010,07,23,06,07,9.80
2010,07,23,06,08,9.80
2010,07,23,06,09,9.80
2010,07,23,06,10,9.80
2010,07,23,06,11,9.80
2010,07,23,06,12,9.80
2010,07,23,06,13,9.80
2010,07,23,06,14,9.80
2010,07,23,06,15,9.80
2010,07,23,06,16,9.80
2010,07,23,06,17,9.80
2010,07,23,06,18,9.80
2010,07,23,06,19,9.80
2010,07,23,06,20,9.80
2010,07,23,06,21,9.80
2010,07,23,06,22,9.80
2010,07,23,06,23,9.80
2010,07,23,06,24,9.80
2010,07,23,06,25,9.80
2010,07,23,06,26,9.80
2010,07,23,06,27,9.90
2010,07,23,06,28,9.90
2010,07,23,06,29,9.90
2010,07,23,06,30,9.90
2010,07,23,06,31,9.90
2010,07,23,06,32,9.90
2010,07,23,06,33,9.90
2010,07,23,06,34,9.90
2010,07,23,06,35,9.90
2010,07,23,06,36,9.90
2010,07,23,06,37,9.90
2010,07,23,06,38,9.90
2010,07,23,06,39,9.90
2010,07,23,06,40,9.90
2010,07,23,06,41,10.00
2010,07,23,06,42,10.00
2010,07,23,06,43,10.00
2010,07,23,06,44,10.00
2010,07,23,06,45,10.10
2010,07,23,06,46,10.10
2010,07,23,06,47,10.10
2010,07,23,06,48,10.10
2010,07,23,06,49,10.20
2010,07,23,06,50,10.20
2010,07,23,06,51,10.20
2010,07,23,06,52,10.30
2010,07,23,06,53,10.30
2010,07,23,06,54,10.40
2010,07,23,06,55,10.40
2010,07,23,06,56,10.50
2010,07,23,06,57,10.60
2010,07,23,06,58,10.60
2010,07,23,06,59,10.70
2010,07,23,07,00,10.80
2010,07,23,07,01,10.80
2010,07,23,07,02,10.90
2010,07,23,07,03,11.00
2010,07,23,07,04,11.10
2010,07,23,07,05,11.20
2010,07,23,07,06,11.30
2010,07,23,07,07,11.30
2010,07,23,07,08,11.40
2010,07,23,07,09,11.50
2010,07,23,07,10,11.60
2010,07,23,07,11,11.70
2010,07,23,07,12,11.80
2010,07,23,07,13,11.90
2010,07,23,07,14,12.00
2010,07,23,07,15,12.10
2010,07,23,07,16,12.20
2010,07,23,07,17,12.30
2010,07,23,07,18,12.40
2010,07,23,07,19,12.40
2010,07,23,07,20,12.50
2010,07,23,07,21,12.60
2010,07,23,07,22,12.60
2010,07,23,07,23,12.70
2010,07,23,07,24,12.80
2010,07,23,07,25,12.90
2010,07,23,07,26,13.00
2010,07,23,07,27,13.10
2010,07,23,07,28,13.20
2010,07,23,07,29,13.30
2010,07,23,07,30,13.40
2010,07,23,07,31,13.50
2010,07,23,07,32,13.50
2010,07,23,07,33,13.60
2010,07,23,07,34,13.60
2010,07,23,07,35,13.70
2010,07,23,07,36,13.80
2010,07,23,07,37,13.90
2010,07,23,07,38,14.00
2010,07,23,07,39,14.10
2010,07,23,07,40,14.20
2010,07,23,07,41,14.30
2010,07,23,07,42,14.30
2010,07,23,07,43,14.40
2010,07,23,07,44,14.40
2010,07,23,07,45,14.50
2010,07,23,07,46,14.60
2010,07,23,07,47,14.60
2010,07,23,07,48,14.60
2010,07,23,07,49,14.70
2010,07,23,07,50,14.70
2010,07,23,07,51,14.70
2010,07,23,07,52,14.70
2010,07,23,07,53,14.70
2010,07,23,07,54,14.70
2010,07,23,07,55,14.70
2010,07,23,07,56,14.70
2010,07,23,07,57,14.70
2010,07,23,07,58,14.70
2010,07,23,07,59,14.70
2010,07,23,08,00,14.70
2010,07,23,08,01,14.80
2010,07,23,08,02,14.80
2010,07,23,08,03,14.80
2010,07,23,08,04,14.80
2010,07,23,08,05,14.90
2010,07,23,08,06,15.00
2010,07,23,08,07,15.00
2010,07,23,08,08,15.10
2010,07,23,08,09,15.20
2010,07,23,08,10,15.30
2010,07,23,08,11,15.40
2010,07,23,08,12,15.60
2010,07,23,08,13,15.60
2010,07,23,08,14,15.70
2010,07,23,08,15,15.80
2010,07,23,08,16,16.00
2010,07,23,08,17,16.00
2010,07,23,08,18,16.10
2010,07,23,08,19,16.20
2010,07,23,08,20,16.20
2010,07,23,08,21,16.30
2010,07,23,08,22,16.40
2010,07,23,08,23,16.50
2010,07,23,08,24,16.60
2010,07,23,08,25,16.70
2010,07,23,08,26,16.80
2010,07,23,08,27,16.90
2010,07,23,08,28,17.00
2010,07,23,08,29,17.10
2010,07,23,08,30,17.20
2010,07,23,08,31,17.20
2010,07,23,08,32,17.30
2010,07,23,08,33,17.40
2010,07,23,08,34,17.40
2010,07,23,08,35,17.40
2010,07,23,08,36,17.40
2010,07,23,08,37,17.30
2010,07,23,08,38,17.30
2010,07,23,08,39,17.30
2010,07,23,08,40,17.20
2010,07,23,08,41,17.20
2010,07,23,08,42,17.20
2010,07,23,08,43,17.20
2010,07,23,08,44,17.20
2010,07,23,08,45,17.20
2010,07,23,08,46,17.10
2010,07,23,08,47,17.10
2010,07,23,08,48,17.10
2010,07,23,08,49,17.10
2010,07,23,08,50,17.10
2010,07,23,08,51,17.10
2010,07,23,08,52,17.00
2010,07,23,08,53,17.00
2010,07,23,08,54,16.90
2010,07,23,08,55,16.90
2010,07,23,08,56,16.90
2010,07,23,08,57,17.00
2010,07,23,08,58,17.10
2010,07,23,08,59,17.10
2010,07,23,09,00,17.20
2010,07,23,09,01,17.20
2010,07,23,09,02,17.20
2010,07,23,09,03,17.30
2010,07,23,09,04,17.30
2010,07,23,09,05,17.30
2010,07,23,09,06,17.30
2010,07,23,09,07,17.30
2010,07,23,09,08,17.30
2010,07,23,09,09,17.30
2010,07,23,09,10,17.40
2010,07,23,09,11,17.50
2010,07,23,09,12,17.60
2010,07,23,09,13,17.60
2010,07,23,09,14,17.70
2010,07,23,09,15,17.80
2010,07,23,09,16,17.80
2010,07,23,09,17,17.80
2010,07,23,09,18,17.90
2010,07,23,09,19,17.90
2010,07,23,09,20,17.90
2010,07,23,09,21,17.90
2010,07,23,09,22,18.00
2010,07,23,09,23,18.10
2010,07,23,09,24,18.10
2010,07,23,09,25,18.00
2010,07,23,09,26,18.00
2010,07,23,09,27,18.00
2010,07,23,09,28,18.00
2010,07,23,09,29,18.10
2010,07,23,09,30,18.00
2010,07,23,09,31,18.00
2010,07,23,09,32,18.00
2010,07,23,09,33,18.00
2010,07,23,09,34,18.00
2010,07,23,09,35,18.10
2010,07,23,09,36,18.10
2010,07,23,09,37,18.10
2010,07,23,09,38,18.00
2010,07,23,09,39,18.00
2010,07,23,09,40,18.00
2010,07,23,09,41,18.00
2010,07,23,09,42,18.10
2010,07,23,09,43,18.10
2010,07,23,09,44,18.10
2010,07,23,09,45,18.10
2010,07,23,09,46,18.10
2010,07,23,09,47,18.10
2010,07,23,09,48,18.10
2010,07,23,09,49,18.20
2010,07,23,09,50,18.20
2010,07,23,09,51,18.20
2010,07,23,09,52,18.20
2010,07,23,09,53,18.30
2010,07,23,09,54,18.30
2010,07,23,09,55,18.40
2010,07,23,09,56,18.50
2010,07,23,09,57,18.50
2010,07,23,09,58,18.60
2010,07,23,09,59,18.60
2010,07,23,10,00,18.60
2010,07,23,10,01,18.60
2010,07,23,10,02,18.70
2010,07,23,10,03,18.70
2010,07,23,10,04,18.60
2010,07,23,10,05,18.60
2010,07,23,10,06,18.60
2010,07,23,10,07,18.70
2010,07,23,10,08,18.70
2010,07,23,10,09,18.70
2010,07,23,10,10,18.80
2010,07,23,10,11,18.80
2010,07,23,10,12,18.90
2010,07,23,10,13,18.90
2010,07,23,10,14,19.00
2010,07,23,10,15,19.10
2010,07,23,10,16,19.20
2010,07,23,10,17,19.30
2010,07,23,10,18,19.30
2010,07,23,10,19,19.30
2010,07,23,10,20,19.30
2010,07,23,10,21,19.30
2010,07,23,10,22,19.20
2010,07,23,10,23,19.20
2010,07,23,10,24,19.20
2010,07,23,10,25,19.10
2010,07,23,10,26,19.10
2010,07,23,10,27,19.10
2010,07,23,10,28,19.10
2010,07,23,10,29,19.20
2010,07,23,10,30,19.20
2010,07,23,10,31,19.20
2010,07,23,10,32,19.30
2010,07,23,10,33,19.20
2010,07,23,10,34,19.30
2010,07,23,10,35,19.30
2010,07,23,10,36,19.40
2010,07,23,10,37,19.50
2010,07,23,10,38,19.60
2010,07,23,10,39,19.60
2010,07,23,10,40,19.60
2010,07,23,10,41,19.50
2010,07,23,10,42,19.40
2010,07,23,10,43,19.30
2010,07,23,10,44,19.30
2010,07,23,10,45,19.30
2010,07,23,10,46,19.40
2010,07,23,10,47,19.40
2010,07,23,10,48,19.40
2010,07,23,10,49,19.40
2010,07,23,10,50,19.40
2010,07,23,10,51,19.40
2010,07,23,10,52,19.50
2010,07,23,10,53,19.50
2010,07,23,10,54,19.60
2010,07,23,10,55,19.70
2010,07,23,10,56,19.70
2010,07,23,10,57,19.80
2010,07,23,10,58,19.80
2010,07,23,10,59,19.80
2010,07,23,11,00,19.80
2010,07,23,11,01,19.80
2010,07,23,11,02,19.70
2010,07,23,11,03,19.70
2010,07,23,11,04,19.70
2010,07,23,11,05,19.70
2010,07,23,11,06,19.70
2010,07,23,11,07,19.70
2010,07,23,11,08,19.70
2010,07,23,11,09,19.70
2010,07,23,11,10,19.70
2010,07,23,11,11,19.70
2010,07,23,11,12,19.80
2010,07,23,11,13,19.80
2010,07,23,11,14,19.90
2010,07,23,11,15,19.90
2010,07,23,11,16,20.00
2010,07,23,11,17,20.00
2010,07,23,11,18,19.90
2010,07,23,11,19,19.90
2010,07,23,11,20,19.90
2010,07,23,11,21,19.90
2010,07,23,11,22,20.00
2010,07,23,11,23,20.00
2010,07,23,11,24,20.10
2010,07,23,11,25,20.20
2010,07,23,11,26,20.20
2010,07,23,11,27,20.20
2010,07,23,11,28,20.20
2010,07,23,11,29,20.30
2010,07,23,11,30,20.30
2010,07,23,11,31,20.30
2010,07,23,11,32,20.40
2010,07,23,11,33,20.50
2010,07,23,11,34,20.60
2010,07,23,11,35,20.60
2010,07,23,11,36,20.60
2010,07,23,11,37,20.50
2010,07,23,11,38,20.60
2010,07,23,11,39,20.60
2010,07,23,11,40,20.60
2010,07,23,11,41,20.70
2010,07,23,11,42,20.70
2010,07,23,11,43,20.70
2010,07,23,11,44,20.80
2010,07,23,11,45,20.80
2010,07,23,11,46,20.80
2010,07,23,11,47,20.90
2010,07,23,11,48,21.00
2010,07,23,11,49,21.00
2010,07,23,11,50,21.10
2010,07,23,11,51,21.20
2010,07,23,11,52,21.30
2010,07,23,11,53,21.40
2010,07,23,11,54,21.50
2010,07,23,11,55,21.60
2010,07,23,11,56,21.60
2010,07,23,11,57,21.60
2010,07,23,11,58,21.70
2010,07,23,11,59,21.60
2010,07,23,12,00,21.50
2010,07,23,12,01,21.50
2010,07,23,12,02,21.50
2010,07,23,12,03,21.60
2010,07,23,12,04,21.60
2010,07,23,12,05,21.60
2010,07,23,12,06,21.50
2010,07,23,12,07,21.60
2010,07,23,12,08,21.60
2010,07,23,12,09,21.70
2010,07,23,12,10,21.80
2010,07,23,12,11,21.80
2010,07,23,12,12,21.90
2010,07,23,12,13,22.00
2010,07,23,12,14,22.10
2010,07,23,12,15,22.20
2010,07,23,12,16,22.20
2010,07,23,12,17,22.20
2010,07,23,12,18,22.10
2010,07,23,12,19,22.00
2010,07,23,12,20,21.90
2010,07,23,12,21,21.80
2010,07,23,12,22,21.80
2010,07,23,12,23,21.70
2010,07,23,12,24,21.70
2010,07,23,12,25,21.80
2010,07,23,12,26,21.80
2010,07,23,12,27,21.80
2010,07,23,12,28,21.90
2010,07,23,12,29,22.00
2010,07,23,12,30,22.20
2010,07,23,12,31,22.30
2010,07,23,12,32,22.30
2010,07,23,12,33,22.20
2010,07,23,12,34,22.20
2010,07,23,12,35,22.20
2010,07,23,12,36,22.30
2010,07,23,12,37,22.40
2010,07,23,12,38,22.50
2010,07,23,12,39,22.60
2010,07,23,12,40,22.60
2010,07,23,12,41,22.70
2010,07,23,12,42,22.70
2010,07,23,12,43,22.80
2010,07,23,12,44,22.80
2010,07,23,12,45,22.80
2010,07,23,12,46,22.70
2010,07,23,12,47,22.60
2010,07,23,12,48,22.50
2010,07,23,12,49,22.30
2010,07,23,12,50,22.20
2010,07,23,12,51,22.10
2010,07,23,12,52,22.00
2010,07,23,12,53,21.90
2010,07,23,12,54,22.00
2010,07,23,12,55,22.10
2010,07,23,12,56,22.10
2010,07,23,12,57,22.10
2010,07,23,12,58,22.10
2010,07,23,12,59,22.20
2010,07,23,13,00,22.30
2010,07,23,13,01,22.40
2010,07,23,13,02,22.50
2010,07,23,13,03,22.60
2010,07,23,13,04,22.70
2010,07,23,13,05,22.80
2010,07,23,13,06,22.80
2010,07,23,13,07,22.90
2010,07,23,13,08,23.00
2010,07,23,13,09,23.10
2010,07,23,13,10,23.20
2010,07,23,13,11,23.10
2010,07,23,13,12,23.10
2010,07,23,13,13,23.10
2010,07,23,13,14,23.20
2010,07,23,13,15,23.20
2010,07,23,13,16,23.30
2010,07,23,13,17,23.30
2010,07,23,13,18,23.30
2010,07,23,13,19,23.40
2010,07,23,13,20,23.40
2010,07,23,13,21,23.20
2010,07,23,13,22,23.20
2010,07,23,13,23,23.10
2010,07,23,13,24,23.10
2010,07,23,13,25,23.10
2010,07,23,13,26,23.20
2010,07,23,13,27,23.30
2010,07,23,13,28,23.30
2010,07,23,13,29,23.40
2010,07,23,13,30,23.40
2010,07,23,13,31,23.40
2010,07,23,13,32,23.40
2010,07,23,13,33,23.40
2010,07,23,13,34,23.50
2010,07,23,13,35,23.50
2010,07,23,13,36,23.50
2010,07,23,13,37,23.50
2010,07,23,13,38,23.40
2010,07,23,13,39,23.30
2010,07,23,13,40,23.30
2010,07,23,13,41,23.30
2010,07,23,13,42,23.40
2010,07,23,13,43,23.40
2010,07,23,13,44,23.40
2010,07,23,13,45,23.40
2010,07,23,13,46,23.50
2010,07,23,13,47,23.50
2010,07,23,13,48,23.60
2010,07,23,13,49,23.70
2010,07,23,13,50,23.70
2010,07,23,13,51,23.70
2010,07,23,13,52,23.60
2010,07,23,13,53,23.60
2010,07,23,13,54,23.60
2010,07,23,13,55,23.70
2010,07,23,13,56,23.70
2010,07,23,13,57,23.70
2010,07,23,13,58,23.60
2010,07,23,13,59,23.50
2010,07,23,14,00,23.40
2010,07,23,14,01,23.40
2010,07,23,14,02,23.40
2010,07,23,14,03,23.40
2010,07,23,14,04,23.50
2010,07,23,14,05,23.60
2010,07,23,14,06,23.50
2010,07,23,14,07,23.60
2010,07,23,14,08,23.60
2010,07,23,14,09,23.60
2010,07,23,14,10,23.70
2010,07,23,14,11,23.70
2010,07,23,14,12,23.70
2010,07,23,14,13,23.70
2010,07,23,14,14,23.70
2010,07,23,14,15,23.60
2010,07,23,14,16,23.60
2010,07,23,14,17,23.60
2010,07,23,14,18,23.50
2010,07,23,14,19,23.50
2010,07,23,14,20,23.60
2010,07,23,14,21,23.60
2010,07,23,14,22,23.50
2010,07,23,14,23,23.60
2010,07,23,14,24,23.60
2010,07,23,14,25,23.60
2010,07,23,14,26,23.60
2010,07,23,14,27,23.70
2010,07,23,14,28,23.80
2010,07,23,14,29,24.00
2010,07,23,14,30,24.00
2010,07,23,14,31,24.00
2010,07,23,14,32,24.10
2010,07,23,14,33,24.10
2010,07,23,14,34,24.20
2010,07,23,14,35,24.20
2010,07,23,14,36,24.20
2010,07,23,14,37,24.30
2010,07,23,14,38,24.30
2010,07,23,14,39,24.30
2010,07,23,14,40,24.30
2010,07,23,14,41,24.30
2010,07,23,14,42,24.30
2010,07,23,14,43,24.30
2010,07,23,14,44,24.20
2010,07,23,14,45,24.10
2010,07,23,14,46,24.00
2010,07,23,14,47,23.90
2010,07,23,14,48,23.90
2010,07,23,14,49,23.80
2010,07,23,14,50,23.70
2010,07,23,14,51,23.70
2010,07,23,14,52,23.70
2010,07,23,14,53,23.70
2010,07,23,14,54,23.60
2010,07,23,14,55,23.60
2010,07,23,14,56,23.60
2010,07,23,14,57,23.60
2010,07,23,14,58,23.60
2010,07,23,14,59,23.50
2010,07,23,15,00,23.40
2010,07,23,15,01,23.50
2010,07,23,15,02,23.50
2010,07,23,15,03,23.50
2010,07,23,15,04,23.60
2010,07,23,15,05,23.50
2010,07,23,15,06,23.40
2010,07,23,15,07,23.30
2010,07,23,15,08,23.30
2010,07,23,15,09,23.30
2010,07,23,15,10,23.40
2010,07,23,15,11,23.40
2010,07,23,15,12,23.30
2010,07,23,15,13,23.30
2010,07,23,15,14,23.20
2010,07,23,15,15,23.10
2010,07,23,15,16,23.10
2010,07,23,15,17,23.20
2010,07,23,15,18,23.20
2010,07,23,15,19,23.30
2010,07,23,15,20,23.40
2010,07,23,15,21,23.50
2010,07,23,15,22,23.70
2010,07,23,15,23,23.70
2010,07,23,15,24,23.60
2010,07,23,15,25,23.50
2010,07,23,15,26,23.50
2010,07,23,15,27,23.70
2010,07,23,15,28,23.80
2010,07,23,15,29,23.70
2010,07,23,15,30,23.60
2010,07,23,15,31,23.60
2010,07,23,15,32,23.60
2010,07,23,15,33,23.70
2010,07,23,15,34,23.70
2010,07,23,15,35,23.80
2010,07,23,15,36,23.80
2010,07,23,15,37,23.80
2010,07,23,15,38,23.90
2010,07,23,15,39,23.90
2010,07,23,15,40,23.90
2010,07,23,15,41,23.80
2010,07,23,15,42,23.90
2010,07,23,15,43,23.90
2010,07,23,15,44,23.90
2010,07,23,15,45,23.90
2010,07,23,15,46,23.90
2010,07,23,15,47,23.90
2010,07,23,15,48,23.90
2010,07,23,15,49,24.00
2010,07,23,15,50,23.90
2010,07,23,15,51,23.80
2010,07,23,15,52,23.80
2010,07,23,15,53,23.80
2010,07,23,15,54,23.80
2010,07,23,15,55,23.80
2010,07,23,15,56,23.90
2010,07,23,15,57,23.80
2010,07,23,15,58,23.80
2010,07,23,15,59,23.80
2010,07,23,16,00,23.80
2010,07,23,16,01,23.80
2010,07,23,16,02,23.80
2010,07,23,16,03,23.80
2010,07,23,16,04,23.90
2010,07,23,16,05,24.00
2010,07,23,16,06,24.10
2010,07,23,16,07,24.10
2010,07,23,16,08,24.10
2010,07,23,16,09,24.20
2010,07,23,16,10,24.10
2010,07,23,16,11,23.90
2010,07,23,16,12,23.80
2010,07,23,16,13,23.80
2010,07,23,16,14,23.80
2010,07,23,16,15,23.90
2010,07,23,16,16,23.90
2010,07,23,16,17,23.90
2010,07,23,16,18,23.90
2010,07,23,16,19,24.00
2010,07,23,16,20,24.00
2010,07,23,16,21,24.00
2010,07,23,16,22,24.00
2010,07,23,16,23,23.90
2010,07,23,16,24,23.90
2010,07,23,16,25,23.90
2010,07,23,16,26,23.90
2010,07,23,16,27,23.90
2010,07,23,16,28,24.00
2010,07,23,16,29,24.00
2010,07,23,16,30,24.10
2010,07,23,16,31,24.10
2010,07,23,16,32,24.20
2010,07,23,16,33,24.10
2010,07,23,16,34,24.00
2010,07,23,16,35,23.90
2010,07,23,16,36,24.00
2010,07,23,16,37,24.00
2010,07,23,16,38,24.00
2010,07,23,16,39,24.00
2010,07,23,16,40,24.00
2010,07,23,16,41,24.00
2010,07,23,16,42,24.00
2010,07,23,16,43,24.10
2010,07,23,16,44,24.10
2010,07,23,16,45,24.10
2010,07,23,16,46,24.10
2010,07,23,16,47,24.10
2010,07,23,16,48,24.10
2010,07,23,16,49,24.00
2010,07,23,16,50,23.90
2010,07,23,16,51,23.90
2010,07,23,16,52,24.00
2010,07,23,16,53,23.90
2010,07,23,16,54,24.00
2010,07,23,16,55,24.00
2010,07,23,16,56,24.10
2010,07,23,16,57,24.10
2010,07,23,16,58,24.10
2010,07,23,16,59,24.00
2010,07,23,17,00,24.00
2010,07,23,17,01,23.80
2010,07,23,17,02,23.80
2010,07,23,17,03,23.80
2010,07,23,17,04,23.80
2010,07,23,17,05,23.80
2010,07,23,17,06,23.90
2010,07,23,17,07,24.00
2010,07,23,17,08,24.10
2010,07,23,17,09,24.20
2010,07,23,17,10,24.30
2010,07,23,17,11,24.30
2010,07,23,17,12,24.30
2010,07,23,17,13,24.30
2010,07,23,17,14,24.30
2010,07,23,17,15,24.30
2010,07,23,17,16,24.30
2010,07,23,17,17,24.30
2010,07,23,17,18,24.30
2010,07,23,17,19,24.20
2010,07,23,17,20,24.20
2010,07,23,17,21,24.10
2010,07,23,17,22,24.20
2010,07,23,17,23,24.30
2010,07,23,17,24,24.30